Radiation Dose at Monitoring Post of Fukushima Daini Nuclear Power Station
Date,Time,MP-1(microSv/h),MP-2(microSv/h),MP-3(microSv/h),MP-4(microSv/h),MP-5(microSv/h),MP-6(microSv/h),MP-7(microSv/h),Wind Direction,Wind Velocity(m/s),Rain
2024/04/21,00:00,0.149,0.130,0.215,0.200,0.210,0.117,0.076,north-northwest,4.8,No
2024/04/21,00:10,0.150,0.130,0.215,0.200,0.207,0.116,0.076,north-northwest,4.9,No
2024/04/21,00:20,0.149,0.130,0.214,0.199,0.208,0.118,0.077,north-northwest,4.6,No
2024/04/21,00:30,0.149,0.131,0.213,0.200,0.209,0.117,0.076,north-northwest,3.4,No
2024/04/21,00:40,0.149,0.130,0.215,0.199,0.208,0.117,0.076,north-northwest,2.7,No
2024/04/21,00:50,0.150,0.130,0.215,0.199,0.209,0.116,0.077,north-northwest,2.2,No
2024/04/21,01:00,0.150,0.131,0.214,0.200,0.209,0.117,0.077,north,3.9,No
2024/04/21,01:10,0.149,0.130,0.214,0.199,0.208,0.117,0.077,north-northwest,2.6,No
2024/04/21,01:20,0.149,0.130,0.215,0.200,0.209,0.117,0.076,north-northwest,2.0,No
2024/04/21,01:30,0.149,0.130,0.213,0.199,0.208,0.117,0.076,north-northwest,3.1,No
2024/04/21,01:40,0.149,0.130,0.215,0.200,0.208,0.117,0.076,north-northwest,3.1,No
2024/04/21,01:50,0.149,0.130,0.216,0.200,0.208,0.117,0.077,north-northwest,2.9,No
2024/04/21,02:00,0.150,0.131,0.215,0.200,0.209,0.118,0.076,north-northwest,1.6,No
2024/04/21,02:10,0.149,0.130,0.216,0.200,0.208,0.117,0.076,north-northwest,4.1,No
2024/04/21,02:20,0.150,0.131,0.214,0.199,0.207,0.117,0.077,northwest,3.5,No
2024/04/21,02:30,0.149,0.131,0.215,0.201,0.209,0.117,0.076,northwest,2.3,No
2024/04/21,02:40,0.149,0.131,0.214,0.200,0.208,0.117,0.077,north-northwest,4.0,No
2024/04/21,02:50,0.150,0.130,0.215,0.200,0.207,0.117,0.077,northwest,4.1,No
2024/04/21,03:00,0.150,0.130,0.215,0.199,0.208,0.117,0.077,northwest,5.1,No
2024/04/21,03:10,0.148,0.131,0.214,0.200,0.208,0.116,0.077,north-northwest,4.7,No
2024/04/21,03:20,0.149,0.130,0.215,0.200,0.208,0.117,0.077,northwest,2.7,No
2024/04/21,03:30,0.150,0.131,0.214,0.200,0.208,0.117,0.077,northwest,3.0,No
2024/04/21,03:40,0.149,0.130,0.214,0.199,0.208,0.117,0.077,northwest,3.6,No
2024/04/21,03:50,0.149,0.130,0.215,0.198,0.208,0.116,0.077,northwest,3.7,No
2024/04/21,04:00,0.149,0.130,0.215,0.200,0.208,0.117,0.077,northwest,4.3,No
2024/04/21,04:10,0.149,0.131,0.214,0.199,0.207,0.117,0.076,northwest,3.6,No
2024/04/21,04:20,0.148,0.130,0.215,0.199,0.208,0.117,0.077,northwest,3.2,No
2024/04/21,04:30,0.151,0.130,0.214,0.200,0.208,0.117,0.077,west-northwest,2.1,No
2024/04/21,04:40,0.149,0.130,0.214,0.200,0.208,0.117,0.078,northwest,1.5,No
2024/04/21,04:50,0.148,0.130,0.215,0.199,0.210,0.117,0.076,west-northwest,1.7,No
2024/04/21,05:00,0.149,0.130,0.213,0.199,0.208,0.117,0.077,west-southwest,1.2,No
2024/04/21,05:10,0.150,0.130,0.213,0.199,0.208,0.116,0.077,south-southwest,0.8,No
2024/04/21,05:20,0.150,0.130,0.214,0.198,0.209,0.117,0.077,south,1.2,No
2024/04/21,05:30,0.149,0.130,0.215,0.198,0.207,0.117,0.077,south-southwest,1.8,No
2024/04/21,05:40,0.149,0.131,0.214,0.199,0.209,0.118,0.077,southwest,2.1,No
2024/04/21,05:50,0.150,0.131,0.215,0.199,0.207,0.117,0.077,southwest,2.3,No
2024/04/21,06:00,0.150,0.129,0.215,0.199,0.207,0.118,0.076,south-southwest,1.5,No
2024/04/21,06:10,0.150,0.130,0.214,0.199,0.209,0.117,0.076,west-southwest,1.3,No
2024/04/21,06:20,0.149,0.130,0.214,0.199,0.208,0.116,0.076,north-northwest,0.9,No
2024/04/21,06:30,0.149,0.130,0.213,0.199,0.207,0.116,0.076,northeast,0.8,No
2024/04/21,06:40,0.149,0.130,0.215,0.198,0.209,0.117,0.077,-,CALM,No
2024/04/21,06:50,0.149,0.131,0.214,0.200,0.208,0.117,0.077,-,CALM,No
2024/04/21,07:00,0.150,0.131,0.214,0.198,0.208,0.117,0.077,-,CALM,No
2024/04/21,07:10,0.149,0.130,0.213,0.200,0.208,0.116,0.076,northeast,1.2,No
2024/04/21,07:20,0.150,0.129,0.214,0.198,0.208,0.116,0.076,northeast,0.6,No
2024/04/21,07:30,0.149,0.130,0.212,0.199,0.207,0.117,0.077,-,CALM,No
2024/04/21,07:40,0.150,0.129,0.213,0.196,0.209,0.116,0.076,east-northeast,0.6,No
2024/04/21,07:50,0.149,0.131,0.215,0.198,0.207,0.116,0.078,northeast,0.9,No
2024/04/21,08:00,0.149,0.130,0.211,0.199,0.209,0.117,0.076,north-northeast,0.7,No
2024/04/21,08:10,0.149,0.131,0.214,0.196,0.207,0.116,0.078,-,CALM,No
2024/04/21,08:20,0.150,0.130,0.214,0.199,0.208,0.117,0.077,-,CALM,No
2024/04/21,08:30,0.148,0.130,0.211,0.198,0.207,0.115,0.077,east-northeast,0.6,No
2024/04/21,08:40,0.150,0.129,0.214,0.197,0.206,0.118,0.077,east-northeast,1.4,No
2024/04/21,08:50,0.149,0.130,0.214,0.198,0.209,0.116,0.076,east-northeast,2.4,No
2024/04/21,09:00,0.148,0.130,0.212,0.200,0.207,0.117,0.077,east-northeast,2.3,No
2024/04/21,09:10,0.150,0.129,0.214,0.197,0.207,0.117,0.078,northeast,1.8,No
2024/04/21,09:20,0.149,0.131,0.214,0.197,0.208,0.117,0.077,northeast,2.0,No
2024/04/21,09:30,0.148,0.131,0.211,0.200,0.208,0.117,0.077,east,2.1,No
2024/04/21,09:40,0.149,0.130,0.213,0.198,0.208,0.116,0.077,east-southeast,1.8,No
2024/04/21,09:50,0.148,0.130,0.214,0.198,0.208,0.116,0.076,east-northeast,1.6,No
2024/04/21,10:00,0.149,0.130,0.213,0.200,0.206,0.116,0.076,east-northeast,1.7,No
2024/04/21,10:10,0.149,0.131,0.215,0.198,0.210,0.117,0.076,east-northeast,1.1,No
2024/04/21,10:20,0.148,0.130,0.214,0.197,0.208,0.116,0.076,northeast,1.7,No
2024/04/21,10:30,0.148,0.130,0.214,0.199,0.206,0.116,0.076,northeast,3.2,No
2024/04/21,10:40,0.149,0.129,0.212,0.199,0.207,0.116,0.077,east,0.8,No
2024/04/21,10:50,0.148,0.130,0.215,0.198,0.209,0.117,0.076,east,1.8,No
2024/04/21,11:00,0.149,0.129,0.214,0.198,0.207,0.116,0.076,east-northeast,1.7,No
2024/04/21,11:10,0.149,0.130,0.212,0.200,0.206,0.116,0.078,northeast,3.4,No
2024/04/21,11:20,0.148,0.130,0.212,0.200,0.208,0.117,0.076,east-northeast,2.9,No
2024/04/21,11:30,0.148,0.129,0.215,0.199,0.209,0.116,0.077,east-northeast,2.7,No
2024/04/21,11:40,0.149,0.130,0.213,0.200,0.207,0.117,0.077,northeast,2.0,No
2024/04/21,11:50,0.147,0.130,0.213,0.200,0.210,0.116,0.076,east-northeast,2.4,No
2024/04/21,12:00,0.149,0.129,0.215,0.197,0.207,0.116,0.077,northeast,2.1,No
2024/04/21,12:10,0.148,0.131,0.214,0.200,0.207,0.116,0.077,east-southeast,1.8,No
2024/04/21,12:20,0.148,0.129,0.212,0.200,0.209,0.116,0.076,east,2.0,No
2024/04/21,12:30,0.149,0.129,0.216,0.199,0.205,0.117,0.076,east,1.6,No
2024/04/21,12:40,0.148,0.131,0.214,0.200,0.206,0.116,0.077,east-northeast,2.3,No
2024/04/21,12:50,0.148,0.129,0.213,0.200,0.210,0.116,0.076,east,2.3,No
2024/04/21,13:00,0.150,0.130,0.213,0.198,0.207,0.116,0.076,east,3.0,No
2024/04/21,13:10,0.148,0.130,0.215,0.198,0.206,0.116,0.076,east,2.4,No
2024/04/21,13:20,0.148,0.130,0.213,0.199,0.205,0.116,0.076,east,2.3,No
2024/04/21,13:30,0.150,0.130,0.216,0.200,0.209,0.116,0.077,east,1.7,No
2024/04/21,13:40,0.149,0.129,0.215,0.198,0.207,0.116,0.076,east,2.2,No
2024/04/21,13:50,0.148,0.130,0.213,0.199,0.208,0.117,0.077,east,2.2,No
2024/04/21,14:00,0.149,0.131,0.215,0.200,0.210,0.116,0.077,east,2.2,No
2024/04/21,14:10,0.147,0.130,0.214,0.199,0.207,0.116,0.076,southeast,1.9,No
2024/04/21,14:20,0.149,0.131,0.214,0.201,0.209,0.116,0.076,east,2.2,No
2024/04/21,14:30,0.148,0.130,0.215,0.200,0.209,0.116,0.076,southeast,2.3,No
2024/04/21,14:40,0.148,0.129,0.213,0.199,0.205,0.116,0.076,southeast,1.4,No
2024/04/21,14:50,0.150,0.131,0.212,0.200,0.206,0.117,0.076,east-southeast,1.8,No
2024/04/21,15:00,0.149,0.130,0.215,0.200,0.209,0.116,0.076,east-southeast,1.6,No
2024/04/21,15:10,0.148,0.130,0.213,0.200,0.207,0.116,0.077,southeast,1.0,No
2024/04/21,15:20,0.151,0.130,0.214,0.202,0.207,0.118,0.076,-,CALM,No
2024/04/21,15:30,0.149,0.129,0.214,0.199,0.211,0.117,0.076,south-southeast,0.9,No
2024/04/21,15:40,0.148,0.130,0.213,0.201,0.207,0.117,0.077,south-southeast,0.7,No
2024/04/21,15:50,0.150,0.129,0.216,0.200,0.206,0.116,0.076,east-southeast,1.0,No
2024/04/21,16:00,0.149,0.131,0.215,0.201,0.210,0.116,0.076,east,0.8,No
2024/04/21,16:10,0.149,0.129,0.215,0.199,0.208,0.117,0.077,east-southeast,1.2,No
2024/04/21,16:20,0.150,0.131,0.214,0.199,0.210,0.116,0.077,southeast,0.7,No
2024/04/21,16:30,0.149,0.130,0.215,0.200,0.208,0.117,0.076,east,0.9,No
2024/04/21,16:40,0.150,0.132,0.214,0.201,0.209,0.116,0.076,east,0.9,No
2024/04/21,16:50,0.149,0.130,0.215,0.200,0.208,0.117,0.077,east-southeast,0.8,No
2024/04/21,17:00,0.150,0.131,0.215,0.200,0.210,0.116,0.076,east,0.6,No
2024/04/21,17:10,0.149,0.129,0.215,0.200,0.208,0.117,0.076,east,0.7,No
2024/04/21,17:20,0.151,0.130,0.215,0.199,0.208,0.116,0.076,east,0.7,No
2024/04/21,17:30,0.149,0.130,0.215,0.199,0.208,0.116,0.077,-,CALM,No
2024/04/21,17:40,0.151,0.131,0.214,0.200,0.208,0.117,0.076,-,CALM,No
2024/04/21,17:50,0.148,0.130,0.216,0.200,0.210,0.117,0.077,-,CALM,No
2024/04/21,18:00,0.150,0.131,0.216,0.201,0.208,0.117,0.076,-,CALM,No
2024/04/21,18:10,0.148,0.130,0.214,0.200,0.209,0.117,0.077,-,CALM,No
2024/04/21,18:20,0.150,0.130,0.215,0.201,0.208,0.116,0.076,-,CALM,No
2024/04/21,18:30,0.148,0.130,0.215,0.199,0.208,0.117,0.076,east,0.6,No
2024/04/21,18:40,0.150,0.131,0.215,0.201,0.208,0.116,0.076,-,CALM,No
2024/04/21,18:50,0.149,0.131,0.215,0.200,0.208,0.117,0.076,-,CALM,No
2024/04/21,19:00,0.148,0.130,0.214,0.201,0.209,0.117,0.076,-,CALM,No
2024/04/21,19:10,0.149,0.130,0.216,0.200,0.209,0.118,0.077,south-southeast,1.1,No
2024/04/21,19:20,0.149,0.130,0.215,0.200,0.209,0.117,0.077,-,CALM,No
2024/04/21,19:30,0.150,0.130,0.215,0.200,0.208,0.117,0.077,-,CALM,No
2024/04/21,19:40,0.149,0.130,0.215,0.201,0.209,0.116,0.076,southeast,0.7,No
2024/04/21,19:50,0.149,0.130,0.215,0.201,0.207,0.116,0.077,southeast,1.2,No
2024/04/21,20:00,0.149,0.130,0.215,0.202,0.209,0.118,0.076,south-southeast,1.7,No
2024/04/21,20:10,0.149,0.131,0.216,0.199,0.207,0.117,0.076,southeast,1.6,No
2024/04/21,20:20,0.149,0.131,0.215,0.202,0.209,0.117,0.076,south-southeast,1.2,No
2024/04/21,20:30,0.149,0.131,0.216,0.200,0.208,0.117,0.076,south-southeast,1.1,No
2024/04/21,20:40,0.150,0.131,0.215,0.200,0.208,0.117,0.077,south-southeast,1.8,No
2024/04/21,20:50,0.150,0.131,0.215,0.201,0.208,0.117,0.077,south-southeast,1.9,No
2024/04/21,21:00,0.150,0.130,0.214,0.200,0.209,0.117,0.077,south-southeast,1.1,No
2024/04/21,21:10,0.149,0.131,0.215,0.200,0.209,0.118,0.077,south-southeast,1.4,No
2024/04/21,21:20,0.151,0.130,0.214,0.201,0.208,0.117,0.077,south-southeast,1.5,No
2024/04/21,21:30,0.149,0.131,0.215,0.200,0.209,0.117,0.077,southeast,1.0,No
2024/04/21,21:40,0.150,0.130,0.215,0.201,0.208,0.117,0.077,south-southeast,0.9,No
2024/04/21,21:50,0.150,0.130,0.215,0.200,0.209,0.117,0.076,southeast,0.6,No
2024/04/21,22:00,0.150,0.130,0.216,0.201,0.210,0.117,0.077,south,1.1,No
2024/04/21,22:10,0.150,0.130,0.215,0.200,0.208,0.117,0.077,south-southeast,1.1,No
2024/04/21,22:20,0.150,0.130,0.215,0.200,0.209,0.116,0.077,south,0.7,No
2024/04/21,22:30,0.149,0.131,0.215,0.200,0.209,0.117,0.077,south,0.6,No
2024/04/21,22:40,0.149,0.130,0.216,0.200,0.209,0.117,0.076,-,CALM,No
2024/04/21,22:50,0.150,0.131,0.214,0.201,0.209,0.117,0.077,-,CALM,No
2024/04/21,23:00,0.150,0.130,0.215,0.199,0.208,0.117,0.077,-,CALM,No
2024/04/21,23:10,0.150,0.131,0.215,0.201,0.210,0.118,0.077,-,CALM,No
2024/04/21,23:20,0.149,0.130,0.215,0.200,0.208,0.117,0.076,-,CALM,No
2024/04/21,23:30,0.151,0.131,0.216,0.201,0.209,0.117,0.076,-,CALM,No
2024/04/21,23:40,0.149,0.130,0.214,0.201,0.208,0.117,0.077,-,CALM,No
2024/04/21,23:50,0.150,0.130,0.215,0.201,0.208,0.117,0.076,-,CALM,No
